EW6756 Weather Reports


Display with metric or nautical units.
time (UTC)temp
F
wind
direction
speed
MPH
gust
MPH
rain 1hr
in
rain 24hr
in
rain mn
in
humidity
%
barometer
mb
20260902182506 63 0 0.0 0.0 0.00 0.02 0.02 90 1017.1
20260902182004 63 0 0.0 0.0 0.00 0.02 0.02 89 1016.9
20260902181503 64 0 0.0 0.0 0.00 0.02 0.02 89 1016.8
20260902181216 64 0 0.0 0.0 0.00 0.02 0.02 89 1016.9
20260902180505 64 0 0.0 0.0 0.00 0.02 0.02 89 1016.7
20260902180006 64 0 0.0 0.0 0.00 0.02 0.02 89 1017.0
20260902175505 64 0 0.0 0.0 0.00 0.02 0.02 88 1016.8
20260902175006 64 195 0.0 3.0 0.00 0.02 0.02 88 1016.8
20260902113005 68 226 2.0 8.0 0.00 0.03 0.00 78 1017.3
20260902112503 68 220 1.0 7.0 0.00 0.03 0.00 78 1017.3
20260902112005 68 207 0.0 7.0 0.00 0.04 0.00 79 1017.4
20260902111503 68 253 1.0 7.0 0.00 0.08 0.00 79 1017.3
20260902111003 68 278 2.0 7.0 0.00 0.08 0.00 79 1017.2
20260902110503 68 239 2.0 11.0 0.00 0.08 0.00 79 1017.2
20260902110007 68 226 3.0 11.0 0.00 0.08 0.00 79 1017.5
20260902105504 68 235 3.0 10.0 0.00 0.08 0.00 79 1017.3
20260902105003 68 250 3.0 10.0 0.00 0.08 0.00 80 1017.4
20260902104503 68 234 3.0 10.0 0.00 0.08 0.00 80 1017.4
20260902104004 68 195 3.0 12.0 0.00 0.08 0.00 80 1017.5
20260902103718 68 195 3.0 12.0 0.00 0.08 0.00 80 1017.4
20260902103004 68 223 2.0 11.0 0.00 0.08 0.00 81 1017.5
20260902102720 68 214 3.0 11.0 0.00 0.08 0.00 82 1017.4
20260902102221 67 189 2.0 11.0 0.00 0.08 0.00 82 1017.5
20260902101503 67 174 2.0 11.0 0.00 0.08 0.00 82 1017.5
20260902101005 67 195 3.0 16.0 0.00 0.08 0.00 82 1017.4
20260902100503 67 200 3.0 16.0 0.00 0.08 0.00 83 1017.5
20260902100217 67 201 3.0 16.0 0.00 0.08 0.00 83 1017.4
20260902095505 67 198 2.0 10.0 0.00 0.08 0.00 83 1017.2
20260902095005 66 209 2.0 10.0 0.00 0.08 0.00 84 1017.5
20260902094504 66 228 2.0 10.0 0.00 0.08 0.00 84 1017.5
20260902094217 66 253 2.0 10.0 0.00 0.08 0.00 84 1017.5
20260902093503 66 199 2.0 8.0 0.00 0.08 0.00 85 1017.5
20260902093004 65 190 2.0 8.0 0.00 0.08 0.00 84 1017.3
20260902092503 65 190 1.0 10.0 0.00 0.08 0.00 84 1017.5
20260902092003 65 183 2.0 14.0 0.00 0.08 0.00 84 1017.5
20260902091717 65 197 3.0 14.0 0.00 0.08 0.00 84 1017.5
20260902091005 65 213 3.0 10.0 0.00 0.08 0.00 86 1017.7
20260902090504 64 201 1.0 7.0 0.00 0.08 0.00 86 1017.7
20260902090004 64 189 1.0 7.0 0.00 0.08 0.00 86 1017.5
20260902085503 64 193 1.0 15.0 0.00 0.08 0.00 86 1017.6
20260902085218 64 212 2.0 15.0 0.00 0.08 0.00 86 1017.6
20260902084503 64 222 4.0 15.0 0.00 0.08 0.00 87 1017.6
20260902084005 63 216 3.0 8.0 0.00 0.08 0.00 88 1017.5
20260902083717 63 207 3.0 8.0 0.00 0.08 0.00 88 1017.5
20260902083003 63 197 1.0 5.0 0.00 0.08 0.00 88 1017.5
20260902082503 63 221 2.0 7.0 0.00 0.08 0.00 89 1017.5
20260902082004 62 204 1.0 7.0 0.00 0.08 0.00 89 1017.5
20260902081505 62 181 2.0 11.0 0.00 0.08 0.00 90 1017.3
20260902081004 62 187 2.0 11.0 0.00 0.08 0.00 90 1017.3
20260902080503 62 201 2.0 11.0 0.00 0.08 0.00 91 1017.3
20260902080004 61 204 2.0 8.0 0.00 0.08 0.00 91 1017.4
20260902075505 61 194 3.0 10.0 0.00 0.08 0.00 91 1017.4
20260902075004 61 201 3.0 10.0 0.00 0.08 0.00 92 1017.3
20260902074503 60 226 1.0 10.0 0.00 0.08 0.00 93 1017.4
20260902074003 60 201 1.0 5.0 0.00 0.08 0.00 93 1017.4
20260902073503 60 203 1.0 5.0 0.00 0.08 0.00 94 1017.4
20260902073004 60 199 1.0 5.0 0.00 0.08 0.00 94 1017.5
20260902072503 59 189 1.0 5.0 0.00 0.08 0.00 94 1017.4
20260902072005 59 188 1.0 4.0 0.00 0.08 0.00 94 1017.4
20260902071505 59 174 1.0 4.0 0.00 0.08 0.00 95 1017.3
20260902071003 59 188 1.0 4.0 0.00 0.08 0.00 95 1017.4
20260902070504 59 215 0.0 4.0 0.00 0.08 0.00 95 1017.4
20260902070004 58 219 0.0 4.0 0.00 0.08 0.00 95 1017.5
20260902065503 58 225 0.0 4.0 0.00 0.08 0.00 95 1017.3
20260902065004 58 225 1.0 5.0 0.00 0.08 0.00 95 1017.5
20260902064504 58 219 1.0 5.0 0.00 0.08 0.00 95 1017.4
20260902064005 58 215 1.0 5.0 0.00 0.08 0.00 96 1017.5
20260902063504 58 214 0.0 4.0 0.00 0.08 0.00 96 1017.6